SCP
0 0 0 0 0 0 0 0 0 0 0 0 0 0 0 0 0 0 0 0 0 0 0 0 0 0 0 0 0 0 0 0 0 0 0 0 0 0 0 0 0 0 0
0 0 0 0 0 0 0 0 0 0 0 0 0 0 0 0 0 0 0 0 0 0 0 0 0 0 0 0 0 0 0 0 0 0 0 0 0 0 0 0 0 0 0
0 0 0 0 0 0 0 0 0 0 0 0 0 0 0 0 0 0 0 0 0 0 0 0 0 0 0 0 0 0 0 0 0 0 0 0 0 0 0 0 0 0 0
0 0 0 0 0 0 0 0 0 0 0 0 0 0 0 0 0 0 0 0 0 0 0 0 0 0 0 0 0 0 0 0 0 0 0 0 0 0 0 0 0 0 0
0 0 0 0 0 0 0 0 0 0 0 0 0 0 0 0 0 0 0 0 0 0 0 0 0 0 0 0 0 0 0 0 0 0 0 0 0 0 0 0 0 0 0
0 0 0 0 0 0 0 0 0 0 0 0 0 0 0 0 0 0 0 0 0 0 0 0 0 0 0 0 0 0 0 0 0 0 0 0 0 0 0 0 0 0 0
0 0 0 0 0 0 0 0 0 0 0 0 0 0 0 0 0 0 0 0 0 0 0 0 0 0 0 0 0 0 0 0 0 0 0 0 0 0 0 0 0 0 0
0 0 0 0 0 0 0 0 0 0 0 0 0 0 0 0 0 0 0 0 0 0 0 0 0 0 0 0 0 0 0 0 0 0 0 0 0 0 0 0 0 0 0
0 0 0 0 0 0 0 0 0 0 0 0 0 0 0 0 0 0 0 0 0 0 0 0 0 0 0 0 0 0 0 0 0 0 0 0 0 0 0 0 0 0 0
0 0 0 0 0 0 0 0 0 0 0 0 0 0 0 0 0 0 0 0 0 0 0 0 0 0 0 0 0 0 0 0 0 0 0 0 0 0 0 0 0 0 0
0 0 0 0 0 0 0 0 0 0 0 0 0 0 0 0 0 0 0 0 0 0 0 0 0 0 0 0 0 0 0 0 0 0 0 0 0 0 0 0 0 0 0
0 0 0 0 0 0 0 0 0 0 0 0 0 0 0 0 0 0 0 0 0 0 0 0 0 0 0 0 0 0 0 0 0 0 0 0 0 0 0 0 0 0 0
0 0 0 0 0 0 0 0 0 0 0 0 0 0 0 0 0 0 0 0 0 0 0 0 0 0 0 0 0 0 0 0 0 0 0 0 0 0 0 0 0 0 0
0 0 0 0 0 0 0 0 0 0 0 0 0 0 0 0 0 0 0 0 0 0 0 0 0 0 0 0 0 0 0 0 0 0 0 0 0 0 0 0 0 0 0
0 0 0 0 0 0 0 0 0 0 0 0 0 0 0 0 0 0 0 0 0 0 0 0 0 0 0 0 0 0 0 0 0 0 0 0 0 0 0 0 0 0 0
0 0 0 0 0 0 0 0 0 0 0 0 0 0 0 0 0 0 0 0 0 0 0 0 0 0 0 0 0 0 0 0 0 0 0 0 0 0 0 0 0 0 0
0 0 0 0 0 0 0 0 0 0 0 0 0 0 0 0 0 0 0 0 0 0 0 0 0 0 0 0 0 0 0 0 0 0 0 0 0 0 0 0 0 0 0
0 0 0 0 0 0 0 0 0 0 0 0 0 0 0 0 0 0 0 0 0 0 0 0 0 0 0 0 0 0 0 0 0 0 0 0 0 0 0 0 0 0 0
0 0 0 0 0 0 0 0 0 0 0 0 0 0 0 0 0 0 0 0 0 0 0 0 0 0 0 0 0 0 0 0 0 0 0 0 0 0 0 0 0 0 0
1 0 0 0 0 0 0 0 0 0 0 0 0 0 0 0 0 0 0 0 0 0 0 0 0 0 0 0 0 0 0 0 0 0 0 0 0 0 0 0 0 0 0
1 1 1 1 1 1 1 1 0 0 0 0 0 0 0 0 0 0 0 0 0 0 0 0 0 0 0 0 0 0 0 0 0 0 0 0 0 0 0 0 0 0 0
1 1 1 1 1 1 1 1 1 1 0 0 0 0 0 0 0 0 0 0 0 0 0 0 0 0 0 0 0 0 0 0 0 0 0 0 0 0 0 0 0 0 0
1 1 1 1 1 1 1 1 1 1 1 1 1 1 0 0 0 0 0 0 0 0 0 0 0 0 0 0 0 0 0 0 0 0 0 0 0 0 0 0 0 0 0
0 1 1 1 1 1 1 1 1 1 1 1 1 1 0 0 0 0 0 0 0 0 0 0 0 0 0 0 0 0 0 0 0 0 0 0 0 0 0 0 0 0 0
0 1 1 1 1 1 1 1 1 1 1 1 1 1 0 0 0 0 0 0 0 0 0 0 0 0 0 0 0 0 0 0 0 0 0 0 0 0 0 0 0 0 0
0 0 1 1 1 1 1 1 1 1 1 1 1 1 1 0 0 0 0 0 0 0 0 0 0 0 0 0 0 0 0 0 0 0 0 0 0 0 0 0 0 0 0
Wind_Speed
6 9 11 7 6 6 6 6 6 6 7 7 7 7 8 8 7 7 7 8 8 8 8 8 8 8 8 9 9 9 9 9 10 9 9 9 9 9 8 8 8 8 11
9 10 11 7 7 7 6 6 7 6 7 7 7 7 7 7 7 7 7 7 7 8 8 8 8 8 8 8 9 8 8 8 9 8 8 9 9 8 8 7 4 8 10
9 10 11 8 7 7 7 7 7 6 6 7 7 7 7 7 7 7 7 6 6 7 7 7 8 8 8 8 7 7 7 8 8 8 7 6 9 9 8 8 8 9 8
9 9 9 9 7 7 7 6 6 6 6 7 6 6 6 6 6 6 6 6 6 6 7 7 8 7 7 7 6 6 6 7 7 7 5 5 7 10 9 8 8 9 8
9 9 11 8 7 7 6 6 6 6 6 6 6 6 6 6 6 6 6 6 6 6 7 7 7 7 6 6 6 5 5 6 6 6 4 5 6 9 8 8 8 8 8
9 9 12 7 7 6 6 6 5 5 6 6 6 6 6 6 6 6 6 6 6 5 6 6 6 6 6 6 6 5 5 5 6 4 4 4 5 9 8 8 8 8 7
9 9 11 8 7 6 5 5 5 5 5 6 6 6 6 6 6 6 6 6 6 5 5 6 6 6 5 5 6 5 5 4 3 3 4 4 6 9 7 7 7 7 7
8 9 11 10 7 6 5 5 4 5 6 6 6 6 6 6 6 6 6 6 5 5 4 5 5 5 5 5 5 5 4 4 3 3 3 4 8 8 6 6 6 6 6
8 8 8 9 9 8 6 5 5 6 7 6 6 6 6 5 6 6 6 6 5 5 4 5 5 5 4 5 4 4 4 3 2 2 3 3 8 7 6 5 5 5 5
7 7 7 7 7 7 8 7 5 6 7 6 6 5 5 5 5 5 5 6 5 5 5 4 4 4 4 4 4 4 4 5 3 2 3 5 8 6 5 5 5 5 5
6 5 5 6 5 5 6 7 6 6 6 6 6 6 4 3 4 5 7 7 5 5 4 4 3 3 3 6 6 5 5 2 2 1 2 8 7 5 5 5 5 6 6
7 6 5 5 5 4 4 5 3 3 5 3 3 3 2 2 2 3 8 6 5 4 5 4 3 4 5 3 6 7 2 1 1 1 4 8 5 5 5 4 5 6 6
7 6 5 5 4 3 3 3 2 1 2 3 3 2 1 1 2 1 2 4 4 4 3 4 4 1 1 1 1 0 1 1 1 1 5 7 4 4 4 4 4 5 5
6 6 5 5 4 3 2 2 2 2 2 1 3 1 1 1 1 1 1 1 1 1 1 1 1 2 2 1 0 0 0 0 0 1 4 6 4 3 3 4 4 4 5
5 5 5 5 4 4 2 2 2 2 2 2 1 1 1 1 1 1 1 1 1 1 2 1 2 2 1 1 1 1 1 1 1 0 3 6 4 3 3 3 3 4 4
5 4 4 5 5 5 4 2 2 2 2 2 2 2 1 1 1 1 1 1 1 1 2 2 2 1 1 2 1 2 1 1 1 0 1 5 6 4 3 2 2 3 3
5 5 5 5 5 5 4 4 2 2 2 2 2 2 1 1 1 1 1 1 1 1 1 1 2 1 1 1 2 1 1 1 1 0 1 1 4 6 4 3 2 2 3
5 5 5 5 5 5 4 3 2 2 2 2 1 2 1 1 1 1 1 1 1 1 1 1 1 1 1 1 1 1 1 1 1 0 0 0 1 1 5 4 2 2 2
5 5 6 5 5 5 5 3 3 2 1 1 1 1 1 1 1 1 1 1 1 1 1 1 2 1 1 0 1 1 0 1 0 1 0 0 1 0 1 5 5 2 2
5 5 6 6 5 5 5 4 3 2 2 1 2 1 1 1 1 1 2 2 1 1 1 1 1 1 0 0 1 1 0 1 0 1 0 1 1 1 0 0 2 4 3
6 6 6 6 6 5 4 4 4 3 3 2 2 2 2 1 1 1 1 2 1 1 1 1 1 2 1 1 1 1 2 2 1 1 0 0 1 1 1 1 0 0 3
6 6 6 6 6 6 5 3 3 3 3 2 1 2 2 1 1 1 1 2 2 2 2 2 2 1 1 1 2 2 2 3 3 1 1 1 0 0 1 1 1 1 2
6 6 5 5 5 5 5 4 4 4 3 3 3 3 2 1 2 1 2 2 2 3 2 2 2 3 2 2 2 3 3 1 0 2 1 1 1 1 1 1 2 1 2
5 5 5 5 5 5 6 5 5 4 3 3 2 2 2 2 2 2 2 2 2 2 2 3 2 3 3 2 2 2 3 3 3 1 2 1 1 1 1 2 1 1 2
4 4 5 5 5 5 5 5 5 4 3 2 3 3 3 3 2 2 2 2 3 2 2 2 2 3 3 3 2 2 2 2 4 4 2 1 1 1 1 2 1 2 2
4 4 5 5 5 5 5 4 5 5 4 3 4 3 3 2 2 2 2 2 2 2 2 3 3 4 3 3 3 3 3 3 3 3 3 3 2 1 1 1 2 2 2
Wind_Direction
127 117 120 126 122 118 112 111 111 115 118 116 116 117 119 119 119 119 121 127 126 124 125 124 127 125 126 124 123 121 120 123 124 124 126 128 131 129 127 132 146 126 117
123 121 126 127 123 118 114 112 115 118 118 116 117 119 119 118 115 115 116 122 126 125 126 128 129 127 125 125 125 125 123 125 129 133 139 142 137 132 129 127 101 105 124
125 127 135 125 124 119 116 114 114 116 119 119 118 119 119 120 118 116 116 116 119 125 128 129 130 126 124 121 121 124 128 132 137 150 174 157 134 133 129 124 114 120 126
126 131 126 121 124 121 118 116 116 117 119 117 118 119 119 120 122 119 116 116 116 123 128 128 129 127 123 122 122 127 133 137 148 180 179 126 127 125 127 127 126 129 128
129 124 116 127 125 121 119 118 119 118 119 120 122 119 116 114 117 117 114 114 116 120 126 126 125 126 126 126 128 134 135 146 170 202 124 115 118 125 134 133 130 130 129
127 122 118 127 123 117 115 117 118 117 118 116 114 110 108 110 111 109 107 105 108 119 125 129 126 125 124 130 134 136 140 162 195 154 120 125 127 131 140 141 135 134 131
127 123 121 122 119 116 116 112 110 122 124 117 109 103 100 100 103 104 104 102 104 108 121 127 127 126 128 133 139 146 158 184 196 133 131 128 115 129 144 147 142 139 137
129 125 125 131 123 120 117 114 110 112 118 121 114 104 97 93 95 99 103 101 103 102 109 130 130 132 132 135 136 141 155 213 171 135 125 113 110 129 141 142 144 147 151
132 131 134 139 141 140 122 107 97 98 105 111 114 109 101 96 95 94 100 104 104 105 107 117 125 129 132 135 138 144 162 217 232 144 132 115 121 138 146 145 153 162 166
139 135 135 139 140 146 137 123 111 107 110 116 117 115 118 125 124 120 126 110 104 105 107 114 118 124 134 143 146 152 182 216 207 152 135 120 130 147 158 163 173 184 182
142 140 141 140 143 144 133 129 143 138 131 147 145 144 169 159 140 146 92 98 106 107 110 112 113 125 164 167 164 171 205 211 137 111 104 108 133 155 161 170 181 188 191
153 151 148 143 145 146 133 136 156 154 136 153 118 137 144 106 97 90 106 110 114 122 138 138 160 195 217 166 155 185 201 158 155 133 102 112 134 158 170 180 184 190 195
153 154 154 150 151 159 146 151 151 141 127 136 124 125 109 127 127 126 134 146 150 161 153 145 194 193 78 62 31 158 56 355 81 116 106 117 139 166 181 187 189 191 196
160 161 160 159 158 163 148 149 160 155 135 131 122 127 121 121 110 91 78 86 113 117 90 68 74 69 64 75 35 63 91 259 128 112 109 125 145 166 180 185 189 190 195
171 168 167 170 160 163 173 188 152 142 138 122 96 93 73 115 113 104 90 49 43 80 110 86 63 70 67 88 53 55 43 21 344 225 133 133 146 174 184 188 190 193 196
179 176 168 180 171 178 181 185 171 165 152 148 129 106 117 98 89 115 138 105 66 51 46 55 66 64 56 56 53 51 20 30 83 229 169 149 156 166 183 204 204 202 203
182 179 182 189 182 185 186 188 175 170 155 147 130 129 142 129 110 154 136 133 86 85 101 97 89 93 98 94 69 47 38 30 58 67 237 209 167 163 173 192 207 218 216
183 177 187 192 181 177 184 186 180 172 151 150 148 135 132 113 128 221 144 116 107 154 136 118 113 93 78 71 73 30 62 91 83 148 246 255 274 164 156 151 161 200 222
180 178 181 187 182 175 174 176 174 152 151 153 146 133 123 148 178 202 137 90 175 174 147 131 90 61 110 114 159 118 60 82 81 84 40 64 62 331 137 141 158 165 188
177 176 181 178 177 175 169 170 174 163 162 169 155 127 154 174 164 201 159 129 201 159 149 111 116 110 237 260 292 57 336 89 110 75 60 97 112 131 77 72 173 161 171
179 176 179 179 173 178 175 180 179 173 173 172 165 148 170 164 146 216 174 146 201 166 180 179 182 173 197 216 231 204 185 176 168 171 147 354 105 117 125 170 272 233 172
185 183 180 178 178 188 178 180 179 172 176 170 150 133 153 158 174 183 217 188 179 185 181 191 211 239 222 223 272 261 225 187 184 173 194 192 240 237 207 187 174 224 266
188 188 186 179 176 184 176 176 169 168 179 174 174 161 157 167 180 199 202 220 203 218 191 211 217 230 248 234 275 295 295 307 143 159 201 199 222 262 253 233 210 222 243
185 180 177 171 171 176 182 188 188 191 189 172 177 161 164 177 188 188 211 221 230 229 206 224 211 242 251 250 228 265 303 332 303 242 192 174 195 231 278 281 256 225 252
172 173 172 166 168 172 186 185 195 202 191 172 171 161 183 175 188 191 209 227 227 231 224 244 232 254 250 261 259 250 249 241 262 274 271 249 221 210 238 260 281 265 261
160 167 165 166 171 175 184 187 197 199 192 186 186 179 193 188 190 187 211 232 234 239 231 236 235 236 255 268 273 265 263 265 258 263 264 256 260 252 259 271 271 263 258